Temperature
18 18 18 18 18 18 18 18 18 18 18 18 18 18 18 18 18 18 18 18 18 17 17 17 17 17 17 17 17 17 17 17 17 17 17 16 16 16 16 16 16 16 16
18 18 18 18 18 18 18 18 18 18 18 18 18 18 18 18 18 18 18 18 18 18 17 17 17 17 17 17 17 17 17 17 17 17 17 16 16 16 16 16 16 16 16
18 18 18 18 18 18 18 18 18 18 18 18 18 18 18 18 18 18 18 18 18 18 17 17 17 17 17 17 17 17 17 17 17 17 17 16 16 16 16 16 16 16 16
18 18 18 18 18 18 18 18 18 18 18 18 18 18 18 18 18 18 18 17 17 17 17 17 17 17 17 17 17 17 17 17 17 17 16 16 16 16 16 16 16 16 16
18 18 18 18 18 18 18 18 18 18 18 18 18 18 18 18 18 18 17 17 17 17 17 17 17 17 17 17 17 17 17 17 17 17 16 16 16 16 16 16 16 16 16
17 17 18 18 18 18 18 18 18 18 18 18 18 18 18 18 18 18 18 17 17 17 17 17 17 17 17 17 17 17 17 16 16 16 16 16 16 16 16 16 16 16 16
17 17 17 17 17 18 18 18 18 18 18 17 17 18 18 18 18 18 18 17 17 17 17 17 17 17 17 17 17 17 17 16 16 16 16 16 16 16 16 16 16 16 16
17 17 17 17 17 17 17 17 17 17 17 17 17 17 17 18 18 18 18 17 17 17 17 17 17 17 17 17 17 17 16 16 16 16 16 16 16 16 16 16 15 15 15
17 17 17 17 17 17 17 17 17 17 17 17 17 17 17 17 17 17 17 17 17 17 17 17 17 17 17 17 17 17 16 16 16 16 16 16 16 16 15 15 15 15 15
17 17 17 17 17 17 17 17 17 17 17 17 17 17 17 17 17 17 17 17 17 17 17 17 17 17 16 16 16 16 16 16 16 16 16 16 16 16 15 15 15 15 15
17 17 17 17 17 17 17 17 17 17 17 17 17 17 17 17 17 17 17 17 17 17 17 17 17 16 16 16 16 16 16 16 16 16 16 16 16 15 15 15 15 15 15
17 17 17 17 17 17 17 17 17 17 17 17 17 17 17 17 17 17 17 17 17 17 17 17 16 16 16 16 16 16 16 16 16 16 16 16 15 15 15 15 15 15 15
17 17 17 17 17 17 17 17 17 17 17 17 17 17 17 17 17 17 16 16 16 17 17 17 16 16 16 16 16 16 16 16 16 16 16 15 15 15 15 15 15 15 15
17 17 17 17 17 17 16 16 16 17 16 16 16 16 16 17 16 16 16 16 16 16 16 16 16 16 16 16 16 16 16 16 16 16 15 15 15 15 15 15 15 15 15
17 17 17 16 16 16 16 16 16 16 16 16 16 16 16 16 16 16 16 16 16 15 15 16 16 16 16 16 16 16 16 16 16 15 15 15 15 15 15 15 15 15 15
16 16 16 16 16 16 16 16 16 16 16 16 16 16 16 16 16 16 16 16 16 15 15 15 15 15 16 16 16 16 16 15 15 15 15 15 15 15 15 15 15 14 14
16 16 16 16 16 16 16 16 16 15 15 16 16 16 16 16 16 16 16 16 15 15 15 15 15 15 15 15 15 15 15 15 15 15 15 15 15 15 15 14 14 14 14
16 16 16 16 16 16 15 15 15 15 15 15 15 15 15 15 15 15 15 15 15 15 15 15 14 15 15 15 15 15 15 15 15 15 15 15 15 15 14 14 14 14 14
16 16 15 15 15 15 15 15 15 15 15 15 15 15 15 15 15 15 15 15 15 15 14 14 14 14 14 14 14 14 14 14 14 15 15 15 15 14 14 14 14 14 14
15 15 15 15 15 15 15 15 15 15 15 15 15 15 15 15 15 15 15 15 15 14 14 14 14 14 14 14 14 14 14 14 14 14 14 14 14 14 14 14 14 14 14
15 15 15 15 15 15 15 15 15 15 15 14 14 14 14 14 14 14 14 14 14 14 14 14 14 13 13 13 14 14 14 14 14 14 14 14 14 14 14 14 14 14 14
15 15 15 15 15 15 14 14 14 14 14 14 14 14 14 14 14 14 14 14 14 14 14 13 13 13 13 13 13 13 13 13 13 13 13 14 13 13 14 13 13 13 13
15 15 15 15 14 14 14 14 14 14 14 14 14 14 14 14 14 14 13 13 13 13 13 13 13 13 13 13 13 13 13 13 13 13 13 13 13 13 13 13 13 13 13
15 15 14 14 14 14 14 14 14 14 14 13 13 13 13 13 13 13 13 13 13 13 13 13 13 13 13 13 13 13 13 12 12 12 12 12 13 13 13 13 13 13 13
14 14 14 14 14 14 14 14 14 14 13 13 13 13 13 13 13 13 13 13 13 13 13 13 13 13 13 12 12 12 12 12 12 12 12 12 12 12 12 12 12 12 12
14 14 14 14 14 14 14 14 13 13 13 13 13 13 13 13 13 13 13 13 13 13 13 13 13 12 12 12 12 12 12 12 12 12 12 12 12 12 12 12 12 12 12
Wind_Speed
0 1 1 1 1 1 1 1 1 1 1 1 1 1 1 2 2 3 4 5 6 6 6 6 6 7 7 9 9 10 10 9 9 10 10 10 10 10 10 11 10 11 11
1 0 0 1 1 1 1 0 0 1 1 1 1 1 1 2 2 3 3 4 5 5 6 6 6 7 7 8 8 8 9 8 9 10 10 11 11 10 10 10 11 10 11
1 1 0 1 1 0 0 1 1 1 0 0 0 1 1 1 1 2 3 3 4 4 5 5 6 6 7 6 7 8 8 8 8 8 9 10 11 11 11 11 11 11 11
1 1 0 1 1 0 1 0 0 0 1 0 0 1 1 1 1 2 2 3 3 3 4 5 6 6 6 6 6 7 8 8 8 8 9 9 10 10 11 11 11 11 11
1 1 1 1 0 1 0 0 0 1 0 0 1 1 0 1 1 2 2 3 3 3 4 5 5 5 6 6 6 7 7 8 8 9 10 10 10 10 10 10 10 11 11
1 1 1 1 0 0 0 1 1 1 1 1 1 0 1 1 1 2 3 2 2 3 4 4 4 4 5 6 7 7 8 8 8 9 10 11 11 11 11 11 11 11 11
1 1 1 0 0 1 1 1 1 1 0 1 1 1 1 1 1 1 1 1 2 2 2 3 3 4 4 5 6 7 8 7 8 8 9 9 10 11 11 11 11 11 11
2 2 1 1 1 1 1 1 1 1 0 1 1 0 1 2 2 1 0 1 1 1 1 2 3 4 4 3 4 6 6 7 7 8 9 9 9 10 11 11 11 11 11
2 2 2 1 1 2 2 2 2 3 2 1 1 2 2 2 2 1 1 1 0 0 1 2 2 4 4 4 5 6 6 6 7 8 8 9 10 10 10 11 11 11 11
2 2 2 2 1 2 2 3 2 2 3 2 2 2 2 2 2 1 1 1 1 1 1 1 2 3 4 4 5 6 7 7 7 8 8 8 9 10 10 11 11 11 11
2 2 2 2 2 2 2 2 2 2 2 3 2 2 2 2 2 2 2 2 1 1 2 2 2 2 3 4 4 5 6 6 6 7 7 7 8 8 9 9 10 11 11
2 2 2 2 2 2 2 2 2 3 3 3 3 2 3 2 3 3 3 2 2 2 2 2 2 2 3 3 5 5 6 6 6 7 7 7 7 7 7 7 8 9 10
2 3 2 2 2 2 2 2 2 2 3 3 3 3 3 4 3 3 3 2 2 2 1 2 2 2 2 3 4 5 6 6 6 6 6 6 6 7 8 8 8 8 9
3 3 2 2 2 2 2 1 2 2 2 2 3 3 2 2 3 3 3 3 1 2 2 3 1 2 2 3 3 4 4 5 5 5 5 6 6 6 6 7 8 7 7
3 2 2 2 2 2 2 1 1 2 2 2 2 3 2 2 2 3 3 3 3 3 3 3 2 2 2 2 2 1 2 3 3 4 4 5 6 5 5 5 6 6 6
2 2 1 2 2 2 2 1 2 2 2 2 2 2 2 2 2 2 3 3 3 4 3 2 2 2 2 2 2 1 1 1 1 2 3 3 4 4 4 4 5 6 7
2 2 2 2 2 2 2 2 2 2 2 2 2 2 2 2 2 2 2 2 2 3 3 3 2 2 1 2 2 2 2 1 1 1 2 2 3 4 4 4 4 5 6
2 2 1 1 2 2 2 2 2 2 2 2 2 2 3 2 2 2 2 2 2 3 3 3 2 1 2 2 2 2 2 1 1 2 1 1 2 3 4 4 4 5 5
1 1 1 1 2 2 2 2 2 2 2 3 3 3 3 3 3 2 2 2 2 2 2 3 3 2 2 2 1 1 1 1 2 2 1 1 1 2 3 3 4 4 5
1 1 1 2 2 2 2 2 2 2 3 3 3 3 3 4 4 4 3 3 2 2 2 2 2 2 2 2 1 1 1 1 2 2 2 1 1 2 2 2 3 4 4
2 2 1 2 2 2 2 2 2 2 2 2 3 3 4 4 4 3 3 3 3 2 2 2 2 2 2 2 2 2 2 1 1 1 1 2 1 1 1 2 3 3 4
1 1 1 2 2 2 2 2 1 1 2 2 2 3 4 4 3 3 4 4 5 5 4 3 3 4 4 3 2 2 2 1 2 1 1 2 1 1 1 1 1 2 3
1 1 1 1 2 3 3 2 1 1 1 2 2 2 3 2 2 2 2 3 3 5 6 5 5 5 5 5 3 2 3 2 2 2 1 2 1 2 1 1 1 1 2
1 2 2 2 2 3 3 2 2 1 1 2 2 2 3 3 2 2 2 2 2 3 5 4 5 5 4 4 4 4 3 2 1 0 1 1 2 2 2 1 1 1 1
1 2 2 2 3 4 3 3 1 1 1 2 2 2 2 3 3 3 3 3 2 3 3 3 3 2 2 3 3 3 2 2 1 2 1 1 1 2 2 2 2 1 0
2 2 2 3 3 4 4 3 1 1 1 2 2 2 2 1 2 3 3 3 3 3 1 1 1 1 1 2 3 4 4 3 2 1 1 1 1 1 1 2 2 2 1
Wind_Direction
39 6 21 19 359 356 5 359 353 356 332 313 291 259 287 278 251 238 239 239 241 235 228 232 235 236 231 230 225 221 217 216 213 208 207 208 207 206 209 205 201 202 202
170 184 342 357 354 333 288 311 335 346 330 310 285 250 254 264 252 248 245 247 249 244 235 237 240 244 238 231 225 219 214 216 215 211 210 209 207 207 207 204 201 202 204
196 180 152 331 315 307 354 36 20 20 330 1 272 256 242 255 244 245 253 259 258 252 241 242 248 249 241 230 221 213 210 211 213 210 210 210 210 210 212 209 207 206 206
212 163 177 280 276 102 87 115 81 23 352 1 288 288 273 261 269 261 258 262 258 254 252 251 249 244 239 236 226 220 212 214 215 212 209 208 209 210 210 211 210 208 208
232 193 220 275 301 93 91 236 107 168 203 254 253 269 259 251 262 263 253 255 252 253 254 255 253 249 247 246 241 235 227 219 218 213 213 213 212 210 211 212 213 214 213
236 202 228 287 131 113 205 192 175 177 194 207 222 298 260 242 232 235 238 239 234 243 250 258 266 266 259 259 251 245 239 231 225 219 215 218 218 214 215 215 215 215 215
249 206 251 345 143 185 227 211 164 146 166 162 100 356 344 299 263 256 242 235 236 236 240 257 264 266 266 269 262 254 245 237 229 224 220 221 221 219 216 217 217 217 216
249 230 211 217 178 178 279 238 169 154 169 156 155 112 334 334 339 334 241 223 252 233 234 255 254 257 258 254 259 253 248 242 235 228 222 219 219 218 216 216 216 218 217
244 236 221 209 205 192 219 231 196 183 199 222 181 169 173 237 295 319 286 249 254 228 250 266 257 257 251 248 253 252 246 243 237 227 223 221 219 219 220 220 219 219 219
255 242 232 226 226 216 223 238 218 198 186 222 224 215 208 188 198 283 313 290 272 253 254 258 261 261 251 243 249 253 249 242 239 236 231 225 221 222 222 223 222 223 223
277 264 239 234 244 242 239 243 229 210 205 216 217 206 208 217 210 207 262 297 309 276 263 255 256 257 252 246 251 255 253 244 237 238 235 228 224 223 222 223 223 226 227
281 277 255 250 255 253 249 244 236 225 232 231 228 222 211 208 206 202 226 255 275 281 275 259 261 265 260 256 256 258 251 244 235 233 234 231 225 219 218 220 223 227 228
264 268 264 254 255 255 253 245 241 244 240 230 227 234 228 227 208 196 196 226 254 287 296 275 260 270 280 272 265 256 249 243 234 232 233 230 226 221 220 220 223 224 227
246 253 246 247 254 260 265 250 251 260 254 238 231 223 229 231 215 204 196 188 233 274 276 275 284 276 293 286 281 257 253 248 241 238 232 228 226 221 220 217 219 223 226
247 243 240 248 263 268 265 247 260 275 264 248 237 229 229 230 215 220 206 196 195 233 260 258 268 293 310 310 323 289 252 256 253 255 242 229 221 213 212 210 209 208 208
247 237 249 256 264 268 266 250 260 262 245 253 243 233 244 244 230 213 209 212 208 211 245 255 248 275 297 317 331 307 289 298 279 262 249 230 217 210 206 204 202 196 197
234 231 244 253 259 263 261 255 260 248 244 259 262 240 249 247 237 229 217 212 207 203 231 267 256 271 278 307 332 334 316 322 328 319 264 231 216 214 210 204 200 195 197
252 236 229 241 256 263 258 248 258 262 246 255 265 265 266 255 242 235 216 214 214 209 207 240 262 284 285 294 310 315 332 331 328 338 303 249 224 212 204 201 199 197 199
263 262 236 242 261 270 262 250 243 247 246 246 248 248 254 244 244 234 222 221 213 209 200 212 254 262 277 283 308 332 342 321 315 325 331 290 245 211 199 197 201 203 207
238 256 261 257 262 270 269 262 257 249 254 255 251 248 247 238 238 229 221 213 193 182 182 199 238 261 266 271 251 271 310 320 307 326 346 335 275 227 211 207 212 211 211
237 235 249 271 275 268 272 280 266 254 264 278 275 263 252 244 238 226 221 202 183 184 190 200 223 238 254 251 254 247 251 287 315 337 332 332 331 310 283 257 238 226 215
249 234 246 260 274 279 300 296 275 259 259 265 281 285 272 256 241 221 213 201 188 189 197 203 221 228 238 239 246 241 225 239 267 290 274 301 324 284 295 262 254 201 201
260 258 255 252 268 289 306 310 298 221 241 259 266 281 282 270 243 219 215 216 217 214 208 206 212 229 230 227 218 222 214 221 245 250 235 266 285 277 290 299 217 191 200
271 253 258 250 257 278 294 303 308 237 253 268 269 265 263 263 237 198 201 210 226 233 229 222 223 231 231 229 215 207 209 213 269 252 210 252 277 275 284 306 311 238 211
280 280 271 257 259 280 289 293 318 257 274 284 282 282 265 245 236 197 191 206 241 265 246 222 221 220 214 200 185 165 173 184 254 271 242 232 272 284 288 289 323 339 254
255 268 283 271 261 271 287 290 279 220 251 274 291 294 278 231 226 195 194 197 222 253 232 148 76 51 113 157 167 186 189 191 205 241 223 205 265 287 288 288 300 313 303
Height
1533 1533 1534 1534 1534 1534 1534 1535 1535 1536 1536 1537 1537 1537 1538 1538 1538 1539 1539 1539 1540 1540 1540 1541 1541 1542 1543 1543 1543 1544 1544 1545 1546 1547 1548 1550 1551 1552 1552 1554 1555 1556 1558
1533 1534 1534 1534 1534 1535 1535 1535 1535 1536 1536 1537 1537 1537 1537 1537 1538 1538 1538 1539 1539 1539 1539 1540 1540 1541 1541 1541 1542 1542 1543 1543 1545 1546 1547 1547 1549 1549 1551 1552 1553 1554 1556
1533 1534 1534 1534 1534 1535 1535 1535 1535 1536 1536 1536 1536 1537 1537 1537 1537 1537 1538 1538 1538 1538 1538 1539 1539 1539 1540 1540 1540 1540 1541 1541 1542 1543 1544 1545 1546 1547 1548 1549 1551 1552 1553
1533 1533 1533 1534 1534 1535 1535 1535 1535 1535 1535 1535 1536 1536 1536 1536 1536 1536 1537 1537 1537 1537 1537 1538 1538 1538 1538 1538 1538 1539 1539 1539 1540 1541 1542 1543 1544 1545 1546 1547 1548 1550 1551
1533 1533 1533 1533 1534 1534 1534 1534 1534 1534 1534 1535 1535 1535 1535 1535 1535 1535 1535 1536 1536 1536 1536 1536 1537 1537 1537 1536 1537 1537 1537 1537 1538 1539 1539 1540 1541 1542 1543 1544 1546 1547 1548
1532 1532 1532 1532 1532 1532 1533 1533 1533 1533 1533 1534 1534 1534 1534 1534 1534 1534 1534 1534 1534 1534 1535 1535 1535 1535 1535 1535 1535 1535 1535 1535 1536 1536 1537 1537 1538 1539 1540 1541 1542 1544 1545
1531 1531 1531 1531 1531 1531 1531 1531 1532 1532 1532 1532 1533 1532 1532 1532 1532 1532 1532 1533 1533 1533 1533 1533 1533 1533 1533 1533 1533 1533 1533 1533 1533 1533 1534 1535 1535 1536 1537 1538 1539 1540 1542
1529 1529 1529 1529 1529 1530 1530 1530 1530 1530 1530 1531 1531 1531 1531 1532 1530 1530 1530 1531 1531 1531 1531 1532 1532 1532 1532 1532 1531 1531 1531 1531 1531 1531 1531 1532 1532 1533 1534 1535 1536 1537 1538
1528 1528 1528 1528 1528 1528 1528 1528 1528 1528 1528 1529 1530 1530 1530 1529 1529 1529 1529 1529 1529 1529 1530 1530 1530 1530 1529 1529 1529 1529 1529 1529 1528 1528 1528 1529 1529 1530 1531 1532 1533 1534 1535
1526 1526 1526 1526 1526 1526 1526 1526 1526 1526 1527 1527 1527 1528 1528 1528 1528 1527 1527 1527 1527 1527 1528 1528 1528 1528 1527 1527 1527 1526 1526 1526 1526 1526 1526 1526 1526 1527 1527 1528 1529 1531 1532
1524 1524 1523 1523 1523 1524 1524 1524 1524 1524 1524 1524 1524 1525 1525 1525 1525 1525 1524 1525 1525 1525 1526 1526 1525 1525 1525 1525 1524 1524 1524 1523 1523 1523 1524 1524 1524 1524 1524 1525 1526 1528 1529
1521 1521 1521 1521 1521 1521 1521 1521 1521 1521 1522 1521 1522 1521 1521 1522 1522 1522 1522 1522 1522 1523 1523 1523 1523 1523 1523 1523 1522 1522 1521 1521 1521 1521 1521 1521 1521 1521 1522 1523 1524 1524 1525
1519 1519 1519 1519 1519 1519 1519 1519 1519 1519 1519 1518 1518 1518 1518 1518 1519 1519 1519 1519 1519 1520 1520 1521 1521 1521 1521 1520 1519 1519 1519 1519 1519 1519 1519 1518 1519 1519 1519 1520 1521 1522 1523
1516 1516 1516 1516 1516 1516 1516 1516 1516 1516 1516 1516 1516 1516 1516 1515 1516 1516 1516 1517 1517 1517 1517 1517 1518 1518 1518 1518 1517 1516 1516 1516 1516 1516 1516 1516 1516 1516 1517 1517 1518 1519 1520
1514 1514 1514 1514 1513 1513 1513 1513 1513 1512 1513 1513 1513 1513 1512 1512 1513 1513 1513 1514 1515 1514 1513 1514 1515 1515 1515 1515 1514 1514 1514 1514 1514 1514 1514 1514 1514 1514 1514 1515 1515 1516 1517
1511 1511 1511 1511 1511 1510 1510 1510 1509 1509 1509 1509 1509 1509 1509 1509 1509 1510 1510 1510 1511 1511 1511 1510 1511 1512 1512 1512 1512 1511 1511 1511 1512 1512 1512 1512 1512 1512 1512 1512 1513 1514 1515
1509 1508 1508 1508 1508 1508 1507 1507 1506 1506 1506 1506 1506 1506 1506 1506 1506 1506 1507 1507 1507 1508 1507 1507 1508 1509 1509 1508 1508 1508 1509 1509 1509 1509 1509 1510 1510 1510 1510 1510 1511 1512 1513
1506 1506 1506 1505 1505 1505 1504 1504 1503 1503 1503 1503 1503 1503 1503 1503 1503 1503 1503 1504 1504 1504 1505 1504 1504 1505 1506 1506 1506 1506 1506 1506 1507 1507 1507 1507 1507 1508 1508 1508 1509 1510 1510
1503 1503 1503 1503 1503 1502 1502 1501 1501 1500 1500 1500 1499 1499 1499 1499 1499 1499 1500 1500 1501 1501 1502 1501 1501 1502 1503 1503 1503 1503 1504 1504 1504 1505 1505 1505 1505 1505 1506 1506 1507 1507 1508
1500 1500 1500 1500 1500 1499 1499 1498 1498 1497 1497 1497 1496 1496 1496 1496 1496 1496 1496 1497 1497 1498 1498 1499 1499 1500 1500 1501 1501 1501 1501 1501 1502 1502 1502 1503 1503 1503 1504 1504 1505 1505 1505
1497 1497 1497 1497 1497 1496 1496 1495 1495 1494 1494 1493 1493 1493 1493 1493 1493 1493 1493 1494 1494 1495 1495 1496 1496 1497 1497 1498 1498 1498 1498 1498 1499 1499 1500 1500 1500 1501 1501 1501 1502 1502 1502
1495 1494 1494 1494 1493 1493 1493 1493 1492 1492 1491 1490 1490 1489 1489 1489 1490 1490 1490 1491 1491 1492 1492 1493 1493 1493 1494 1494 1495 1495 1495 1496 1496 1497 1497 1497 1498 1498 1498 1498 1499 1499 1499
1492 1492 1491 1491 1491 1490 1490 1490 1489 1489 1488 1487 1487 1487 1486 1486 1486 1487 1487 1488 1489 1489 1490 1491 1491 1491 1491 1492 1493 1493 1493 1493 1493 1494 1495 1494 1495 1495 1496 1496 1496 1496 1496
1490 1490 1489 1489 1488 1488 1488 1487 1487 1486 1485 1485 1484 1484 1483 1483 1483 1484 1484 1485 1486 1486 1487 1488 1488 1489 1489 1490 1490 1491 1491 1491 1491 1492 1492 1492 1492 1493 1493 1493 1494 1494 1494
1487 1487 1487 1486 1485 1485 1485 1484 1484 1483 1482 1482 1481 1481 1480 1480 1480 1481 1481 1482 1483 1483 1484 1485 1486 1486 1487 1487 1487 1488 1488 1488 1488 1489 1490 1490 1491 1491 1491 1491 1491 1491 1491
1485 1485 1484 1484 1483 1482 1482 1482 1481 1480 1479 1479 1478 1478 1477 1477 1478 1478 1478 1479 1479 1480 1481 1482 1483 1483 1483 1484 1484 1485 1485 1485 1485 1486 1487 1488 1488 1489 1489 1489 1489 1489 1489